Погода в Сайншанде

Монголия     44°53′40″N   110°08′10″E
темп.,
°C
ветер,
м/с
пор.,
м/с
влажн.,
%
обл.,
%
осадки,
мм/ч
давл.,
гПа
погр.,
м
21 мая, сб
сб2123:00+22зюз49175 0.0 1007188
02:00+21ссз4422100 0.0 100745
05:00+19вюв22295 0.0 100712
08:00+21с33264 0.0 1008243
11:00+25св32201 0.0 10071033
14:00+28ссз24151 0.0 10053491
17:00+29с35125 0.0 10034082
20:00+26с22140 0.0 100323
22 мая, вс
вс2223:00+23ссв11180 0.0 100411
02:00+21ю22195 0.0 100413
05:00+20ююз34224 0.0 100426
08:00+24зюз23165 0.0 1004200
11:00+28ссз341392 0.0 10031425
14:00+30ссз2511100 0.0 10014325
17:00+28ююз971691 0.0 1001956
20:00+22в7103677 0.5 1004321
23 мая, пн
пн2323:00+22св81127100 0.2 1005512
02:00+21всв6103117 0.2 1006345
05:00+17св2353100 1.3 100861
08:00+20св4538100 1.4 1007216
11:00+24в332886 0.0 1006948
14:00+28юз2319100 0.0 10042342
17:00+29зсз46175 0.0 10022796
20:00+27зсз34190 0.0 100266
24 мая, вт
вт2423:00+25зюз33216 0.0 100321
02:00+16ссв101536100 0.0 1008650
05:00+14с121633100 0.0 1012919
08:00+14с9112813 0.0 10141134
11:00+18ссз1012190 0.0 10131893
14:00+22сз1113140 0.0 10112788
17:00+22ссз1114130 0.0 10093220
20:00+20ссв8102218 0.0 1010971
25 мая, ср
ср2523:00+15ссв711355 0.0 1014881
02:00+13с916414 0.0 10151132
05:00+11ссв713516 0.0 1015893
08:00+12ссв811475 0.0 10161236
11:00+16с793446 0.0 10151996
14:00+18с7102758 0.0 10122349
17:00+19ссв1111305 0.0 10112181
20:00+15ссв1011465 0.0 10141201